Location: Miss�
(46.9484°N, 0.1922°W)
Time: 02:58:20
(UTC+00:00)

MetOp-A - Pass Details

Date: 02 March 2021
Orbit: 819 x 821 km, 98.5° (Epoch: 12 April)

Event Time Altitude Azimuth Distance (km) Brightness Sun altitude
Exits shadow 19:48:10 - 171° (S) 2,649 6.6 -21.2°
Reaches altitude 10° 19:48:46 10° 172° (S) 2,412 6.4 -21.3°
Maximum altitude 19:54:07 73° 257° (WSW) 862 4.3 -22.2°
Drops below altitude 10° 19:59:30 10° 342° (NNW) 2,430 7.0 -23.1°
Sets 20:01:52 0° 345° (NNW) 3,367 7.7 -23.5°
